| time (UTC) | temp F | wind direction | speed MPH | gust MPH | rain 1hr in | rain 24hr in | rain mn in | humidity % | barometer mb |
| 20260507044430 | 52 | 293 | 4.0 | 7.0 | 0.00 | 0.00 | 0.00 | 85 | 1010.4 |
| 20260507043923 | 52 | 279 | 4.0 | 7.0 | 0.00 | 0.00 | 0.00 | 86 | 1010.4 |
| 20260507043417 | 52 | 280 | 3.0 | 4.0 | 0.00 | 0.00 | 0.00 | 86 | 1010.3 |
| 20260507042911 | 52 | 265 | 2.0 | 3.0 | 0.00 | 0.00 | 0.00 | 87 | 1010.3 |
| 20260507042405 | 52 | 254 | 2.0 | 3.0 | 0.00 | 0.00 | 0.00 | 88 | 1010.3 |
| 20260507041859 | 52 | 255 | 2.0 | 5.0 | 0.00 | 0.00 | 0.00 | 88 | 1010.2 |
| 20260507041353 | 52 | 226 | 1.0 | 3.0 | 0.00 | 0.00 | 0.00 | 88 | 1010.1 |
| 20260507040340 | 52 | 279 | 1.0 | 3.0 | 0.00 | 0.00 | 0.00 | 88 | 1010.0 |
| 20260507035834 | 52 | 284 | 2.0 | 2.0 | 0.00 | 0.00 | 0.00 | 88 | 1010.0 |
| 20260507034822 | 52 | 276 | 1.0 | 2.0 | 0.00 | 0.00 | 0.00 | 88 | 1010.0 |
| 20260507034316 | 52 | 271 | 1.0 | 2.0 | 0.00 | 0.00 | 0.00 | 88 | 1010.0 |
| 20260507033809 | 52 | 273 | 1.0 | 2.0 | 0.00 | 0.00 | 0.00 | 88 | 1009.9 |
| 20260507033303 | 52 | 279 | 2.0 | 2.0 | 0.00 | 0.00 | 0.00 | 88 | 1009.9 |
| 20260507032757 | 52 | 275 | 2.0 | 2.0 | 0.00 | 0.00 | 0.00 | 88 | 1009.8 |
| 20260507031745 | 52 | 279 | 2.0 | 3.0 | 0.00 | 0.00 | 0.00 | 88 | 1009.8 |
| 20260507031239 | 52 | 260 | 1.0 | 1.0 | 0.00 | 0.00 | 0.00 | 88 | 1009.9 |
| 20260507030733 | 52 | 180 | 0.0 | 0.0 | 0.00 | 0.00 | 0.00 | 88 | 1009.9 |
| 20260507030227 | 52 | 259 | 0.0 | 0.0 | 0.00 | 0.00 | 0.00 | 88 | 1009.8 |
| 20260507025720 | 52 | 269 | 1.0 | 1.0 | 0.00 | 0.00 | 0.00 | 88 | 1009.8 |
| 20260507025214 | 52 | 272 | 1.0 | 1.0 | 0.00 | 0.00 | 0.00 | 88 | 1009.7 |
| 20260507024202 | 52 | 268 | 1.0 | 3.0 | 0.00 | 0.00 | 0.00 | 88 | 1009.7 |
| 20260507023656 | 52 | 264 | 2.0 | 3.0 | 0.00 | 0.00 | 0.00 | 88 | 1009.7 |
| 20260507023149 | 52 | 273 | 1.0 | 2.0 | 0.00 | 0.00 | 0.00 | 88 | 1009.7 |
| 20260507022643 | 52 | 280 | 1.0 | 2.0 | 0.00 | 0.00 | 0.00 | 88 | 1009.7 |
| 20260507022137 | 52 | 275 | 2.0 | 2.0 | 0.00 | 0.00 | 0.00 | 88 | 1009.7 |
| 20260507021631 | 52 | 291 | 2.0 | 3.0 | 0.00 | 0.00 | 0.00 | 88 | 1009.6 |
| 20260507021125 | 52 | 280 | 2.0 | 3.0 | 0.00 | 0.00 | 0.00 | 87 | 1009.5 |
| 20260507020619 | 52 | 255 | 1.0 | 2.0 | 0.00 | 0.00 | 0.00 | 87 | 1009.5 |
| 20260507020112 | 52 | 282 | 1.0 | 2.0 | 0.00 | 0.00 | 0.00 | 87 | 1009.5 |
| 20260507015606 | 52 | 276 | 1.0 | 3.0 | 0.00 | 0.00 | 0.00 | 87 | 1009.4 |
| 20260507015100 | 52 | 271 | 1.0 | 2.0 | 0.00 | 0.00 | 0.00 | 87 | 1009.4 |
| 20260507014554 | 52 | 282 | 1.0 | 2.0 | 0.00 | 0.00 | 0.00 | 87 | 1009.3 |
| 20260507014048 | 51 | 273 | 1.0 | 1.0 | 0.00 | 0.00 | 0.00 | 87 | 1009.2 |
| 20260507013542 | 51 | 270 | 1.0 | 2.0 | 0.00 | 0.00 | 0.00 | 87 | 1009.3 |
| 20260507013036 | 51 | 296 | 1.0 | 2.0 | 0.00 | 0.00 | 0.00 | 87 | 1009.2 |
| 20260507012529 | 51 | 255 | 1.0 | 3.0 | 0.00 | 0.00 | 0.00 | 87 | 1009.2 |
| 20260507012023 | 51 | 266 | 2.0 | 3.0 | 0.00 | 0.00 | 0.00 | 87 | 1009.2 |
| 20260507011517 | 51 | 229 | 2.0 | 2.0 | 0.00 | 0.00 | 0.00 | 87 | 1009.1 |
| 20260507011011 | 51 | 228 | 2.0 | 3.0 | 0.00 | 0.00 | 0.00 | 87 | 1009.1 |
| 20260507010505 | 51 | 225 | 1.0 | 2.0 | 0.00 | 0.00 | 0.00 | 86 | 1009.0 |
| 20260507005959 | 51 | 250 | 1.0 | 1.0 | 0.00 | 0.00 | 0.00 | 86 | 1009.0 |
| 20260507005452 | 51 | 218 | 1.0 | 3.0 | 0.00 | 0.00 | 0.00 | 86 | 1009.0 |
| 20260507004946 | 51 | 300 | 1.0 | 2.0 | 0.00 | 0.00 | 0.00 | 86 | 1009.0 |
| 20260507004440 | 51 | 312 | 2.0 | 3.0 | 0.00 | 0.00 | 0.00 | 86 | 1008.9 |
| 20260507003934 | 51 | 317 | 1.0 | 2.0 | 0.00 | 0.00 | 0.00 | 86 | 1008.9 |
| 20260507003428 | 51 | 315 | 1.0 | 2.0 | 0.00 | 0.00 | 0.00 | 86 | 1009.0 |
| 20260507002922 | 51 | 289 | 1.0 | 1.0 | 0.00 | 0.00 | 0.00 | 86 | 1008.9 |
| 20260507002415 | 51 | 270 | 1.0 | 2.0 | 0.00 | 0.00 | 0.00 | 86 | 1009.0 |
| 20260507001909 | 51 | 328 | 1.0 | 2.0 | 0.00 | 0.00 | 0.00 | 86 | 1008.9 |
| 20260507001403 | 51 | 0 | 1.0 | 1.0 | 0.00 | 0.00 | 0.00 | 86 | 1008.9 |
| 20260507000857 | 51 | 0 | 1.0 | 1.0 | 0.00 | 0.00 | 0.00 | 86 | 1008.9 |
| 20260507000351 | 51 | 0 | 0.0 | 1.0 | 0.00 | 0.00 | 0.00 | 85 | 1008.9 |
| 20260506235845 | 51 | 0 | 0.0 | 0.0 | 0.00 | 0.00 | 0.00 | 85 | 1009.0 |
| 20260506234834 | 51 | 326 | 2.0 | 3.0 | 0.00 | 0.00 | 0.00 | 85 | 1009.0 |
| 20260506234326 | 52 | 308 | 2.0 | 3.0 | 0.00 | 0.00 | 0.00 | 85 | 1009.0 |
| 20260506233820 | 52 | 315 | 2.0 | 2.0 | 0.00 | 0.00 | 0.00 | 86 | 1009.0 |
| 20260506233314 | 52 | 310 | 2.0 | 3.0 | 0.00 | 0.00 | 0.00 | 86 | 1009.1 |
| 20260506232808 | 52 | 308 | 3.0 | 4.0 | 0.00 | 0.00 | 0.00 | 86 | 1009.1 |
| 20260506232305 | 52 | 272 | 2.0 | 3.0 | 0.00 | 0.00 | 0.00 | 86 | 1009.1 |
| 20260506231756 | 52 | 277 | 4.0 | 6.0 | 0.00 | 0.00 | 0.00 | 85 | 1009.1 |
| 20260506231249 | 52 | 243 | 3.0 | 5.0 | 0.00 | 0.00 | 0.00 | 85 | 1009.0 |
| 20260506230743 | 52 | 234 | 3.0 | 5.0 | 0.00 | 0.00 | 0.00 | 85 | 1008.7 |
| 20260506230237 | 52 | 244 | 2.0 | 3.0 | 0.00 | 0.00 | 0.00 | 85 | 1008.6 |
| 20260506225731 | 52 | 250 | 2.0 | 2.0 | 0.00 | 0.00 | 0.00 | 85 | 1008.5 |
| 20260506225225 | 52 | 244 | 2.0 | 2.0 | 0.00 | 0.00 | 0.00 | 84 | 1008.5 |
| 20260506224718 | 52 | 252 | 2.0 | 3.0 | 0.00 | 0.00 | 0.00 | 83 | 1008.5 |
| 20260506224212 | 52 | 285 | 2.0 | 3.0 | 0.00 | 0.00 | 0.00 | 83 | 1008.3 |
| 20260506223706 | 52 | 261 | 1.0 | 1.0 | 0.00 | 0.00 | 0.00 | 83 | 1008.3 |
| 20260506223200 | 52 | 225 | 2.0 | 2.0 | 0.00 | 0.00 | 0.00 | 83 | 1008.3 |
| 20260506222654 | 53 | 248 | 1.0 | 3.0 | 0.00 | 0.00 | 0.00 | 83 | 1008.1 |
| 20260506222148 | 53 | 304 | 3.0 | 3.0 | 0.00 | 0.00 | 0.00 | 83 | 1008.0 |
| 20260506221642 | 53 | 277 | 2.0 | 2.0 | 0.00 | 0.00 | 0.00 | 83 | 1008.0 |
| 20260506221135 | 54 | 275 | 1.0 | 3.0 | 0.00 | 0.00 | 0.00 | 83 | 1008.1 |
| 20260506220629 | 54 | 293 | 2.0 | 3.0 | 0.00 | 0.00 | 0.00 | 83 | 1008.2 |
| 20260506220123 | 54 | 346 | 2.0 | 3.0 | 0.00 | 0.00 | 0.00 | 83 | 1008.2 |
| 20260506215617 | 54 | 342 | 3.0 | 3.0 | 0.00 | 0.00 | 0.00 | 83 | 1008.3 |
| 20260506215111 | 54 | 358 | 2.0 | 3.0 | 0.00 | 0.00 | 0.00 | 83 | 1008.2 |
| 20260506214605 | 54 | 338 | 4.0 | 6.0 | 0.00 | 0.00 | 0.00 | 83 | 1008.2 |
| 20260506214058 | 54 | 2 | 3.0 | 6.0 | 0.00 | 0.00 | 0.00 | 83 | 1008.2 |
| 20260506213552 | 54 | 328 | 5.0 | 7.0 | 0.00 | 0.00 | 0.00 | 83 | 1008.1 |
| 20260506213046 | 54 | 325 | 5.0 | 8.0 | 0.00 | 0.00 | 0.00 | 83 | 1008.2 |
| 20260506212540 | 55 | 332 | 3.0 | 4.0 | 0.00 | 0.00 | 0.00 | 83 | 1008.2 |
| 20260506212034 | 55 | 327 | 4.0 | 6.0 | 0.00 | 0.00 | 0.00 | 83 | 1008.1 |
| 20260506211528 | 55 | 314 | 4.0 | 6.0 | 0.00 | 0.00 | 0.00 | 83 | 1008.1 |
| 20260506211021 | 55 | 314 | 4.0 | 7.0 | 0.00 | 0.00 | 0.00 | 83 | 1008.2 |
| 20260506210515 | 55 | 308 | 4.0 | 11.0 | 0.00 | 0.00 | 0.00 | 83 | 1008.2 |
| 20260506210009 | 55 | 309 | 6.0 | 9.0 | 0.01 | 0.00 | 0.00 | 83 | 1008.0 |
| 20260506205503 | 55 | 310 | 5.0 | 10.0 | 0.02 | 0.00 | 0.00 | 82 | 1008.0 |
| 20260506204957 | 55 | 321 | 1.0 | 2.0 | 0.03 | 0.00 | 0.00 | 81 | 1007.3 |
| 20260506203944 | 55 | 303 | 2.0 | 2.0 | 0.06 | 0.00 | 0.00 | 81 | 1007.2 |
| 20260506203438 | 56 | 169 | 1.0 | 3.0 | 0.06 | 0.00 | 0.00 | 80 | 1007.1 |
| 20260506202932 | 56 | 135 | 1.0 | 2.0 | 0.08 | 0.00 | 0.00 | 80 | 1007.0 |
| 20260506201413 | 56 | 180 | 1.0 | 2.0 | 0.20 | 0.00 | 0.00 | 79 | 1007.1 |
| 20260506200907 | 56 | 69 | 0.0 | 1.0 | 0.20 | 0.00 | 0.00 | 79 | 1007.2 |
| 20260506200401 | 56 | 77 | 1.0 | 1.0 | 0.20 | 0.00 | 0.00 | 78 | 1007.2 |
| 20260506195855 | 56 | 270 | 0.0 | 1.0 | 0.19 | 0.00 | 0.00 | 78 | 1007.1 |
| 20260506194322 | 57 | 319 | 2.0 | 3.0 | 0.15 | 0.00 | 0.00 | 77 | 1007.4 |
| 20260506193810 | 57 | 272 | 2.0 | 3.0 | 0.14 | 0.00 | 0.00 | 76 | 1007.4 |
| 20260506193303 | 57 | 218 | 2.0 | 3.0 | 0.14 | 0.00 | 0.00 | 75 | 1007.4 |
| 20260506192742 | 58 | 293 | 4.0 | 6.0 | 0.12 | 0.00 | 0.00 | 73 | 1007.5 |
| 20260506192158 | 59 | 254 | 4.0 | 7.0 | 0.09 | 0.00 | 0.00 | 71 | 1007.4 |
| 20260506191545 | 60 | 289 | 4.0 | 7.0 | 0.00 | 0.00 | 0.00 | 62 | 1007.3 |
| 20260506191042 | 60 | 307 | 6.0 | 10.0 | 0.00 | 0.00 | 0.00 | 64 | 1006.8 |
| 20260506191038 | 60 | 307 | 6.0 | 10.0 | 0.00 | 0.00 | 0.00 | 64 | 1006.8 |
| 20260506190532 | 61 | 183 | 1.0 | 2.0 | 0.00 | 0.00 | 0.00 | 61 | 1006.5 |
| 20260506190026 | 61 | 137 | 2.0 | 3.0 | 0.00 | 0.00 | 0.00 | 60 | 1005.9 |
| 20260506185520 | 61 | 123 | 0.0 | 1.0 | 0.00 | 0.00 | 0.00 | 59 | 1005.8 |
| 20260506185014 | 61 | 170 | 1.0 | 2.0 | 0.00 | 0.00 | 0.00 | 58 | 1005.9 |
| 20260506184001 | 61 | 336 | 0.0 | 1.0 | 0.00 | 0.00 | 0.00 | 57 | 1005.8 |
| 20260506183455 | 62 | 132 | 1.0 | 3.0 | 0.00 | 0.00 | 0.00 | 57 | 1005.5 |
| 20260506182949 | 62 | 152 | 1.0 | 1.0 | 0.00 | 0.00 | 0.00 | 56 | 1005.3 |
| 20260506182443 | 62 | 162 | 0.0 | 1.0 | 0.00 | 0.00 | 0.00 | 55 | 1005.2 |
| 20260506181937 | 63 | 135 | 0.0 | 0.0 | 0.00 | 0.00 | 0.00 | 55 | 1005.2 |
| 20260506181431 | 63 | 87 | 1.0 | 1.0 | 0.00 | 0.00 | 0.00 | 54 | 1005.2 |
| 20260506174354 | 66 | 42 | 1.0 | 2.0 | 0.00 | 0.00 | 0.00 | 51 | 1004.9 |
| 20260506173848 | 66 | 40 | 1.0 | 2.0 | 0.00 | 0.00 | 0.00 | 51 | 1004.9 |
| 20260506172835 | 67 | 56 | 3.0 | 4.0 | 0.00 | 0.00 | 0.00 | 50 | 1004.7 |
| 20260506172329 | 68 | 35 | 3.0 | 5.0 | 0.00 | 0.00 | 0.00 | 49 | 1004.7 |
| 20260506171317 | 69 | 31 | 2.0 | 3.0 | 0.00 | 0.00 | 0.00 | 48 | 1004.7 |
| 20260506170811 | 69 | 35 | 2.0 | 3.0 | 0.00 | 0.00 | 0.00 | 48 | 1004.7 |
| 20260506170305 | 70 | 51 | 4.0 | 6.0 | 0.00 | 0.00 | 0.00 | 48 | 1004.7 |
| 20260506165758 | 70 | 45 | 4.0 | 5.0 | 0.00 | 0.00 | 0.00 | 47 | 1004.7 |
| 20260506165252 | 70 | 8 | 3.0 | 5.0 | 0.00 | 0.00 | 0.00 | 48 | 1004.8 |
| 20260506164746 | 70 | 4 | 3.0 | 7.0 | 0.00 | 0.00 | 0.00 | 48 | 1004.8 |
| 20260506163734 | 71 | 9 | 4.0 | 6.0 | 0.00 | 0.00 | 0.00 | 46 | 1004.6 |
| 20260506163227 | 71 | 20 | 5.0 | 7.0 | 0.00 | 0.00 | 0.00 | 46 | 1004.6 |
| 20260506162721 | 71 | 21 | 4.0 | 7.0 | 0.00 | 0.00 | 0.00 | 45 | 1004.6 |
| 20260506162215 | 72 | 11 | 4.0 | 6.0 | 0.00 | 0.00 | 0.00 | 45 | 1004.7 |
| 20260506161709 | 72 | 7 | 5.0 | 7.0 | 0.00 | 0.00 | 0.00 | 44 | 1004.8 |
| 20260506160657 | 73 | 42 | 2.0 | 3.0 | 0.00 | 0.00 | 0.00 | 43 | 1004.8 |
| 20260506160151 | 72 | 75 | 1.0 | 2.0 | 0.00 | 0.00 | 0.00 | 44 | 1004.7 |
| 20260506155644 | 71 | 120 | 1.0 | 2.0 | 0.00 | 0.00 | 0.00 | 44 | 1004.7 |
| 20260506155138 | 70 | 108 | 1.0 | 2.0 | 0.00 | 0.00 | 0.00 | 46 | 1004.6 |
| 20260506154632 | 70 | 136 | 1.0 | 3.0 | 0.00 | 0.00 | 0.00 | 43 | 1004.7 |
| 20260506154126 | 70 | 128 | 2.0 | 3.0 | 0.00 | 0.00 | 0.00 | 42 | 1004.7 |
| 20260506153620 | 70 | 111 | 2.0 | 3.0 | 0.00 | 0.00 | 0.00 | 42 | 1004.8 |
| 20260506152607 | 72 | 112 | 3.0 | 5.0 | 0.00 | 0.00 | 0.00 | 41 | 1004.8 |
| 20260506152101 | 73 | 129 | 3.0 | 5.0 | 0.00 | 0.00 | 0.00 | 40 | 1004.9 |
| 20260506151555 | 74 | 139 | 3.0 | 5.0 | 0.00 | 0.00 | 0.00 | 39 | 1004.9 |
| 20260506151049 | 74 | 138 | 3.0 | 5.0 | 0.00 | 0.00 | 0.00 | 40 | 1005.0 |
| 20260506150543 | 74 | 133 | 5.0 | 6.0 | 0.00 | 0.00 | 0.00 | 40 | 1005.1 |
| 20260506150036 | 73 | 131 | 4.0 | 7.0 | 0.00 | 0.00 | 0.00 | 39 | 1005.1 |
| 20260506145530 | 74 | 120 | 4.0 | 7.0 | 0.00 | 0.00 | 0.00 | 37 | 1005.1 |
| 20260506145024 | 75 | 111 | 2.0 | 4.0 | 0.00 | 0.00 | 0.00 | 36 | 1005.1 |
| 20260506144518 | 76 | 98 | 2.0 | 5.0 | 0.00 | 0.00 | 0.00 | 35 | 1005.1 |
| 20260506143000 | 78 | 119 | 2.0 | 3.0 | 0.00 | 0.00 | 0.00 | 33 | 1005.3 |
| 20260506142453 | 79 | 114 | 2.0 | 3.0 | 0.00 | 0.00 | 0.00 | 32 | 1005.3 |
| 20260506141947 | 80 | 96 | 3.0 | 6.0 | 0.00 | 0.00 | 0.00 | 31 | 1005.4 |
| 20260506141441 | 82 | 105 | 2.0 | 4.0 | 0.00 | 0.00 | 0.00 | 29 | 1005.4 |
| 20260506140935 | 83 | 133 | 2.0 | 3.0 | 0.00 | 0.00 | 0.00 | 27 | 1005.4 |
| 20260506135923 | 88 | 189 | 2.0 | 5.0 | 0.00 | 0.00 | 0.00 | 24 | 1005.5 |
| 20260506135416 | 92 | 345 | 2.0 | 5.0 | 0.00 | 0.00 | 0.00 | 22 | 1005.6 |
| 20260506134910 | 95 | 30 | 2.0 | 3.0 | 0.00 | 0.00 | 0.00 | 21 | 1005.7 |
| 20260506133858 | 93 | 253 | 1.0 | 2.0 | 0.00 | 0.00 | 0.00 | 21 | 1005.7 |
| 20260506133352 | 92 | 84 | 1.0 | 2.0 | 0.00 | 0.00 | 0.00 | 22 | 1005.8 |
| 20260506132845 | 93 | 147 | 1.0 | 3.0 | 0.00 | 0.00 | 0.00 | 21 | 1005.8 |
| 20260506131833 | 93 | 137 | 1.0 | 3.0 | 0.00 | 0.00 | 0.00 | 22 | 1005.8 |
| 20260506131327 | 93 | 114 | 1.0 | 3.0 | 0.00 | 0.00 | 0.00 | 23 | 1005.9 |
| 20260506130314 | 90 | 69 | 0.0 | 1.0 | 0.00 | 0.00 | 0.00 | 24 | 1005.8 |
| 20260506125808 | 89 | 61 | 1.0 | 1.0 | 0.00 | 0.00 | 0.00 | 25 | 1005.9 |
| 20260506125305 | 87 | 299 | 2.0 | 4.0 | 0.00 | 0.00 | 0.00 | 27 | 1006.0 |
| 20260506124756 | 87 | 263 | 2.0 | 3.0 | 0.00 | 0.00 | 0.00 | 24 | 1006.0 |
| 20260506123744 | 89 | 69 | 1.0 | 4.0 | 0.00 | 0.00 | 0.00 | 24 | 1006.1 |
| 20260506123237 | 87 | 315 | 3.0 | 5.0 | 0.00 | 0.00 | 0.00 | 27 | 1006.2 |
| 20260506122731 | 87 | 319 | 2.0 | 4.0 | 0.00 | 0.00 | 0.00 | 28 | 1006.3 |
| 20260506122225 | 86 | 318 | 2.0 | 4.0 | 0.00 | 0.00 | 0.00 | 29 | 1006.4 |
| 20260506121719 | 86 | 311 | 2.0 | 2.0 | 0.00 | 0.00 | 0.00 | 28 | 1006.5 |
| 20260506121213 | 86 | 217 | 2.0 | 4.0 | 0.00 | 0.00 | 0.00 | 25 | 1006.7 |
| 20260506120706 | 89 | 189 | 2.0 | 5.0 | 0.00 | 0.00 | 0.00 | 23 | 1006.8 |
| 20260506120200 | 93 | 221 | 3.0 | 3.0 | 0.00 | 0.00 | 0.00 | 20 | 1006.8 |
| 20260506115654 | 94 | 305 | 3.0 | 6.0 | 0.00 | 0.00 | 0.00 | 22 | 1006.8 |
| 20260506115148 | 94 | 351 | 2.0 | 3.0 | 0.00 | 0.00 | 0.00 | 25 | 1006.8 |
| 20260506114642 | 91 | 303 | 3.0 | 5.0 | 0.00 | 0.00 | 0.00 | 27 | 1006.8 |
| 20260506114136 | 90 | 359 | 2.0 | 6.0 | 0.00 | 0.00 | 0.00 | 27 | 1006.9 |
| 20260506113629 | 87 | 270 | 3.0 | 6.0 | 0.00 | 0.00 | 0.00 | 26 | 1006.9 |
| 20260506113123 | 86 | 203 | 2.0 | 5.0 | 0.00 | 0.00 | 0.00 | 28 | 1007.0 |
| 20260506112617 | 84 | 208 | 3.0 | 4.0 | 0.00 | 0.00 | 0.00 | 28 | 1007.0 |
| 20260506111605 | 84 | 314 | 2.0 | 4.0 | 0.00 | 0.00 | 0.00 | 36 | 1007.1 |
| 20260506111058 | 81 | 327 | 2.0 | 3.0 | 0.00 | 0.00 | 0.00 | 36 | 1007.1 |
| 20260506110552 | 78 | 287 | 3.0 | 4.0 | 0.00 | 0.00 | 0.00 | 39 | 1007.3 |
| 20260506110046 | 76 | 254 | 2.0 | 4.0 | 0.00 | 0.00 | 0.00 | 36 | 1007.2 |
| 20260506105540 | 75 | 240 | 3.0 | 4.0 | 0.00 | 0.00 | 0.00 | 34 | 1007.3 |
| 20260506105033 | 77 | 246 | 3.0 | 4.0 | 0.00 | 0.00 | 0.00 | 35 | 1007.4 |
| 20260506104527 | 77 | 288 | 4.0 | 7.0 | 0.00 | 0.00 | 0.00 | 36 | 1007.4 |
| 20260506104021 | 76 | 275 | 2.0 | 3.0 | 0.00 | 0.00 | 0.00 | 39 | 1007.4 |
| 20260506103515 | 75 | 277 | 3.0 | 4.0 | 0.00 | 0.00 | 0.00 | 39 | 1007.4 |
| 20260506103009 | 74 | 291 | 3.0 | 4.0 | 0.00 | 0.00 | 0.00 | 40 | 1007.5 |
| 20260506102502 | 75 | 272 | 3.0 | 6.0 | 0.00 | 0.00 | 0.00 | 37 | 1007.6 |
| 20260506101956 | 76 | 296 | 3.0 | 7.0 | 0.00 | 0.00 | 0.00 | 40 | 1007.7 |
| 20260506101450 | 75 | 301 | 2.0 | 4.0 | 0.00 | 0.00 | 0.00 | 41 | 1007.8 |
| 20260506100944 | 74 | 309 | 3.0 | 5.0 | 0.00 | 0.00 | 0.00 | 43 | 1007.8 |
| 20260506100438 | 73 | 291 | 4.0 | 6.0 | 0.00 | 0.00 | 0.00 | 42 | 1007.8 |
| 20260506095932 | 73 | 285 | 3.0 | 4.0 | 0.00 | 0.00 | 0.00 | 43 | 1007.8 |
| 20260506095425 | 71 | 305 | 3.0 | 6.0 | 0.00 | 0.00 | 0.00 | 48 | 1007.8 |
| 20260506094919 | 71 | 284 | 2.0 | 4.0 | 0.00 | 0.00 | 0.00 | 47 | 1007.9 |
| 20260506094413 | 71 | 300 | 2.0 | 3.0 | 0.00 | 0.00 | 0.00 | 48 | 1007.9 |
| 20260506093907 | 70 | 300 | 2.0 | 4.0 | 0.00 | 0.00 | 0.00 | 48 | 1007.9 |
| 20260506093401 | 69 | 263 | 3.0 | 6.0 | 0.00 | 0.00 | 0.00 | 49 | 1008.0 |
| 20260506092854 | 69 | 239 | 2.0 | 3.0 | 0.00 | 0.00 | 0.00 | 47 | 1007.9 |
| 20260506092348 | 69 | 261 | 2.0 | 3.0 | 0.00 | 0.00 | 0.00 | 49 | 1007.9 |
| 20260506091842 | 69 | 217 | 3.0 | 4.0 | 0.00 | 0.00 | 0.00 | 47 | 1007.9 |
| 20260506091336 | 69 | 270 | 3.0 | 5.0 | 0.00 | 0.00 | 0.00 | 48 | 1007.9 |
| 20260506090830 | 69 | 305 | 3.0 | 6.0 | 0.00 | 0.00 | 0.00 | 49 | 1007.8 |
| 20260506090324 | 69 | 282 | 3.0 | 5.0 | 0.00 | 0.00 | 0.00 | 49 | 1007.8 |
| 20260506085817 | 69 | 284 | 4.0 | 6.0 | 0.00 | 0.00 | 0.00 | 49 | 1007.9 |
| 20260506085311 | 69 | 249 | 4.0 | 5.0 | 0.00 | 0.00 | 0.00 | 48 | 1008.0 |
| 20260506084805 | 70 | 282 | 3.0 | 4.0 | 0.00 | 0.00 | 0.00 | 49 | 1007.9 |
| 20260506084259 | 69 | 273 | 3.0 | 6.0 | 0.00 | 0.00 | 0.00 | 50 | 1007.8 |
| 20260506083753 | 68 | 286 | 3.0 | 6.0 | 0.00 | 0.00 | 0.00 | 53 | 1007.8 |
| 20260506082740 | 67 | 310 | 4.0 | 6.0 | 0.00 | 0.00 | 0.00 | 55 | 1007.9 |
| 20260506081728 | 65 | 311 | 4.0 | 6.0 | 0.00 | 0.00 | 0.00 | 58 | 1007.8 |
| 20260506081222 | 65 | 312 | 4.0 | 7.0 | 0.00 | 0.00 | 0.00 | 59 | 1007.8 |
| 20260506080716 | 66 | 310 | 5.0 | 7.0 | 0.00 | 0.00 | 0.00 | 59 | 1007.7 |
| 20260506080209 | 65 | 314 | 4.0 | 5.0 | 0.00 | 0.00 | 0.00 | 63 | 1007.6 |
| 20260506072626 | 60 | 304 | 4.0 | 6.0 | 0.00 | 0.00 | 0.00 | 70 | 1007.9 |
| 20260506072120 | 60 | 310 | 4.0 | 7.0 | 0.00 | 0.00 | 0.00 | 71 | 1007.9 |
| 20260506070601 | 59 | 311 | 5.0 | 9.0 | 0.00 | 0.00 | 0.00 | 73 | 1007.8 |
| 20260506062512 | 57 | 126 | 0.0 | 2.0 | 0.00 | 0.00 | 0.00 | 81 | 1007.9 |
| 20260506062006 | 57 | 157 | 1.0 | 2.0 | 0.00 | 0.00 | 0.00 | 81 | 1007.8 |
| 20260506061500 | 56 | 123 | 1.0 | 3.0 | 0.00 | 0.00 | 0.00 | 82 | 1007.8 |
| 20260506060953 | 56 | 149 | 2.0 | 3.0 | 0.00 | 0.00 | 0.00 | 82 | 1007.8 |
| 20260506060447 | 56 | 126 | 2.0 | 3.0 | 0.00 | 0.00 | 0.00 | 83 | 1007.8 |